F5ZQC-13 Weather Reports


Display with metric or nautical units.
time (UTC)temp
F
wind
direction
speed
MPH
gust
MPH
rain 1hr
in
rain 24hr
in
rain mn
in
humidity
%
barometer
mb
20260506215738 56 0 2.0 7.0 0.00 0.00 0.02 48 1012.2
20260506215131 56 337 0.0 3.0 0.00 0.00 0.02 49 1012.2
20260506214523 56 303 0.0 2.0 0.00 0.00 0.02 48 1012.2
20260506214321 56 292 1.0 3.0 0.00 0.00 0.02 48 1012.2
20260506214118 56 303 2.0 6.0 0.00 0.00 0.02 49 1012.2
20260506213916 56 270 1.0 6.0 0.00 0.00 0.02 48 1012.1
20260506213714 56 315 1.0 3.0 0.00 0.00 0.02 48 1012.3
20260506213317 56 292 0.0 1.0 0.00 0.00 0.02 49 1012.2
20260506211449 56 270 1.0 3.0 0.00 0.00 0.02 48 1012.1
20260506211247 56 292 1.0 3.0 0.00 0.00 0.02 48 1012.2
20260506211044 56 292 2.0 3.0 0.00 0.00 0.02 48 1012.3
20260506210236 56 326 1.0 3.0 0.00 0.00 0.02 48 1012.2
20260506210033 56 315 0.0 1.0 0.00 0.00 0.02 48 1012.2
20260506205831 56 0 0.0 3.0 0.00 0.00 0.02 47 1012.2
20260506205021 56 292 1.0 4.0 0.00 0.00 0.02 46 1012.0
20260506204856 56 303 2.0 4.0 0.00 0.00 0.02 46 1012.2
20260506204819 56 303 2.0 4.0 0.00 0.00 0.02 46 1012.2
20260506204617 56 270 2.0 4.0 0.00 0.00 0.02 45 1012.0
20260506204214 56 315 1.0 5.0 0.00 0.00 0.02 45 1012.1
20260506203808 57 270 2.0 4.0 0.00 0.00 0.02 45 1012.1
20260506202150 57 315 4.0 6.0 0.00 0.00 0.02 45 1011.9
20260506201947 57 315 4.0 6.0 0.00 0.00 0.02 45 1011.8
20260506201139 58 315 2.0 5.0 0.00 0.00 0.02 45 1011.9
20260506200330 58 0 1.0 3.0 0.00 0.00 0.02 45 1011.7
20260506195840 58 337 1.0 5.0 0.00 0.00 0.02 44 1011.5
20260506195723 58 337 1.0 5.0 0.00 0.00 0.02 44 1011.5
20260506195521 58 0 1.0 5.0 0.00 0.00 0.02 44 1011.6
20260506195117 58 337 1.0 4.0 0.00 0.00 0.02 43 1011.6
20260506194914 58 292 2.0 4.0 0.00 0.00 0.02 43 1011.5
20260506193338 59 270 3.0 6.0 0.00 0.00 0.02 43 1011.2
20260506193256 59 270 3.0 6.0 0.00 0.00 0.02 43 1011.2
20260506192649 59 303 4.0 7.0 0.00 0.00 0.02 42 1011.1
20260506192244 59 303 2.0 4.0 0.00 0.00 0.02 42 1011.2
20260506192042 59 315 3.0 5.0 0.00 0.00 0.02 43 1011.1
20260506191234 60 292 1.0 3.0 0.00 0.00 0.02 42 1011.2
20260506191030 60 315 1.0 2.0 0.00 0.00 0.02 42 1011.2
20260506190828 60 270 0.0 3.0 0.00 0.00 0.02 42 1011.1
20260506190729 60 315 1.0 3.0 0.00 0.00 0.02 42 1011.0
20260506190626 60 315 1.0 3.0 0.00 0.00 0.02 42 1011.0
20260506190222 60 292 1.0 2.0 0.00 0.00 0.02 41 1011.0
20260506190024 60 292 1.0 7.0 0.00 0.00 0.02 40 1011.0
20260506185817 60 292 3.0 7.0 0.00 0.00 0.02 40 1010.9
20260506185413 60 303 4.0 6.0 0.00 0.00 0.02 40 1011.0
20260506185251 60 270 1.0 6.0 0.00 0.00 0.02 41 1010.9
20260506185210 60 270 1.0 6.0 0.00 0.00 0.02 41 1010.9
20260506184841 61 292 4.0 6.0 0.00 0.00 0.02 41 1011.0
20260506184805 61 292 4.0 6.0 0.00 0.00 0.02 41 1011.0
20260506184200 61 315 4.0 5.0 0.00 0.00 0.02 42 1010.9
20260506183959 61 315 3.0 6.0 0.00 0.00 0.02 42 1010.9
20260506183840 61 292 4.0 6.0 0.00 0.00 0.02 42 1010.8
20260506183754 61 292 4.0 6.0 0.00 0.00 0.02 42 1010.8
20260506183553 61 270 1.0 3.0 0.00 0.00 0.02 42 1010.9
20260506183149 61 315 2.0 4.0 0.00 0.00 0.02 43 1010.8
20260506182339 61 315 1.0 3.0 0.00 0.00 0.02 42 1010.8
20260506181732 61 315 0.0 2.0 0.00 0.00 0.02 41 1010.7
20260506180922 61 270 1.0 2.0 0.00 0.00 0.02 42 1010.6
20260506180720 61 315 0.0 1.0 0.00 0.00 0.02 41 1010.5
20260506180518 61 270 0.0 4.0 0.00 0.00 0.02 40 1010.6
20260506180316 61 315 3.0 4.0 0.00 0.00 0.02 40 1010.5
20260506180114 61 303 0.0 5.0 0.00 0.00 0.02 41 1010.5
20260506175752 61 292 4.0 4.0 0.00 0.00 0.02 40 1010.4
20260506175709 61 292 4.0 4.0 0.00 0.00 0.02 40 1010.4
20260506175306 61 270 0.0 7.0 0.00 0.00 0.02 40 1010.5
20260506174051 61 270 6.0 9.0 0.00 0.00 0.02 41 1010.3
20260506173647 61 270 4.0 9.0 0.00 0.00 0.02 41 1010.3
20260506173242 61 270 3.0 3.0 0.00 0.00 0.02 41 1010.5
20260506172635 61 270 2.0 5.0 0.00 0.00 0.02 41 1010.2
20260506172233 61 270 1.0 10.0 0.00 0.00 0.02 41 1010.3
20260506172124 61 270 10.0 10.0 0.00 0.00 0.02 41 1010.3
20260506171714 61 315 1.0 8.0 0.00 0.00 0.02 41 1010.2
20260506171309 61 270 7.0 10.0 0.00 0.00 0.02 41 1010.1
20260506171110 61 270 3.0 10.0 0.00 0.00 0.02 41 1010.1
20260506170905 61 270 1.0 4.0 0.00 0.00 0.01 41 1010.1
20260506170500 61 292 5.0 6.0 0.00 0.00 0.01 41 1010.0
20260506164727 61 270 9.0 9.0 0.00 0.00 0.01 41 1009.8
20260506164524 61 270 3.0 15.0 0.00 0.00 0.01 41 1009.9
20260506164220 61 270 15.0 15.0 0.00 0.00 0.01 41 1009.8
20260506164017 61 270 7.0 9.0 0.00 0.00 0.01 42 1009.8
20260506163815 61 315 4.0 13.0 0.00 0.00 0.01 42 1009.7
20260506163613 62 315 3.0 13.0 0.00 0.00 0.01 42 1009.8
20260506163511 62 270 13.0 13.0 0.00 0.00 0.01 42 1009.9
20260506163318 62 326 3.0 7.0 0.00 0.00 0.01 43 1009.8
20260506163118 62 270 2.0 7.0 0.00 0.00 0.01 43 1009.8
20260506162914 62 292 4.0 4.0 0.00 0.00 0.01 43 1009.7
20260506162711 62 270 2.0 9.0 0.00 0.00 0.01 42 1009.7
20260506162307 62 236 1.0 5.0 0.00 0.00 0.01 42 1009.8
20260506162109 62 258 5.0 5.0 0.00 0.00 0.01 42 1009.6
20260506161903 62 270 2.0 3.0 0.00 0.00 0.01 42 1009.6
20260506161706 62 292 1.0 7.0 0.00 0.00 0.01 41 1009.6
20260506161458 62 270 3.0 7.0 0.00 0.00 0.01 41 1009.6
20260506161256 62 315 5.0 7.0 0.00 0.00 0.01 42 1009.5
20260506160738 63 315 3.0 7.0 0.00 0.00 0.01 42 1009.5
20260506160656 63 315 3.0 7.0 0.00 0.00 0.01 42 1009.5
20260506155638 63 326 9.0 12.0 0.00 0.00 0.01 42 1009.4
20260506154627 64 337 2.0 4.0 0.00 0.00 0.01 42 1009.3
20260506154222 64 315 3.0 4.0 0.00 0.00 0.01 41 1009.4
20260506154019 64 258 3.0 4.0 0.00 0.00 0.01 41 1009.2
20260506153615 65 337 2.0 8.0 0.00 0.00 0.01 41 1009.3
20260506153210 65 315 3.0 5.0 0.00 0.00 0.01 39 1009.3
20260506153011 65 303 4.0 5.0 0.00 0.00 0.01 39 1009.3
20260506152805 65 0 3.0 4.0 0.00 0.00 0.01 39 1009.2
20260506152603 65 0 3.0 4.0 0.00 0.00 0.01 39 1009.2
20260506152202 66 0 3.0 4.0 0.00 0.00 0.01 38 1009.1
20260506151832 66 326 2.0 5.0 0.00 0.00 0.01 38 1009.2
20260506151754 66 326 2.0 5.0 0.00 0.00 0.01 38 1009.2
20260506150544 68 315 2.0 7.0 0.00 0.00 0.01 35 1009.1
20260506150338 68 315 6.0 7.0 0.00 0.00 0.01 35 1009.1
20260506145735 69 315 4.0 5.0 0.00 0.00 0.01 33 1009.0
20260506145330 70 292 3.0 3.0 0.00 0.00 0.01 32 1009.1
20260506145130 70 315 3.0 3.0 0.00 0.00 0.01 32 1009.1
20260506144923 70 315 0.0 4.0 0.00 0.00 0.01 31 1009.1
20260506144801 70 315 2.0 4.0 0.00 0.00 0.01 29 1009.2
20260506144720 70 315 2.0 4.0 0.00 0.00 0.01 29 1009.2
20260506144518 70 270 1.0 3.0 0.00 0.00 0.00 28 1009.1
20260506143911 71 270 3.0 8.0 0.00 0.00 0.00 27 1009.1
20260506143709 72 270 8.0 8.0 0.00 0.00 0.00 27 1009.0
20260506143304 72 270 1.0 4.0 0.00 0.00 0.00 26 1009.1
20260506143108 72 270 3.0 4.0 0.00 0.00 0.00 26 1009.0
20260506142903 73 270 1.0 3.0 0.00 0.00 0.00 26 1009.0
20260506142657 73 270 2.0 6.0 0.00 0.00 0.00 25 1009.0
20260506142254 73 270 2.0 4.0 0.00 0.00 0.00 24 1009.0
20260506141450 74 270 3.0 6.0 0.00 0.00 0.00 22 1009.1
20260506141241 74 270 5.0 6.0 0.00 0.00 0.00 22 1009.1
20260506140837 75 270 2.0 8.0 0.00 0.00 0.00 22 1009.1
20260506140634 75 270 4.0 10.0 0.00 0.00 0.00 21 1009.0
20260506140230 75 270 7.0 9.0 0.00 0.00 0.00 20 1009.1
20260506140029 76 270 3.0 9.0 0.00 0.00 0.00 20 1009.1
20260506135421 76 270 6.0 10.0 0.00 0.00 0.00 20 1009.0
20260506135017 77 270 7.0 13.0 0.00 0.00 0.00 20 1009.0
20260506134815 78 270 9.0 13.0 0.00 0.00 0.00 20 1009.0
20260506134612 78 270 12.0 13.0 0.00 0.00 0.00 20 1009.1
20260506133844 78 270 7.0 12.0 0.00 0.00 0.00 20 1009.1
20260506133640 78 270 9.0 16.0 0.00 0.00 0.00 19 1009.1
20260506133442 78 270 14.0 16.0 0.00 0.00 0.00 20 1008.9
20260506133236 79 270 10.0 12.0 0.00 0.00 0.00 20 1009.1
20260506132832 78 270 4.0 10.0 0.00 0.00 0.00 21 1009.1
20260506132632 78 270 6.0 9.0 0.00 0.00 0.00 22 1009.0
20260506132225 77 270 8.0 10.0 0.00 0.00 0.00 22 1009.0
20260506132023 77 270 2.0 10.0 0.00 0.00 0.00 22 1008.9
20260506131822 77 292 4.0 7.0 0.00 0.00 0.00 22 1009.0
20260506131619 76 292 7.0 10.0 0.00 0.00 0.00 24 1008.9
20260506131416 76 270 6.0 10.0 0.00 0.00 0.00 24 1009.0
20260506131217 76 315 3.0 8.0 0.00 0.00 0.00 23 1009.0
20260506131012 75 270 5.0 8.0 0.00 0.00 0.00 23 1009.0
20260506130809 75 270 4.0 6.0 0.00 0.00 0.00 24 1009.1
20260506130606 74 270 4.0 7.0 0.00 0.00 0.00 25 1009.0
20260506130404 74 292 5.0 7.0 0.00 0.00 0.00 23 1009.0
20260506125758 74 270 3.0 7.0 0.00 0.00 0.00 24 1009.0
20260506125427 73 270 3.0 10.0 0.00 0.00 0.00 23 1009.2
20260506125355 73 270 3.0 10.0 0.00 0.00 0.00 23 1009.2
20260506124953 73 270 8.0 8.0 0.00 0.00 0.00 23 1009.1
20260506124749 73 270 6.0 9.0 0.00 0.00 0.00 22 1009.2
20260506124544 73 270 4.0 9.0 0.00 0.00 0.00 22 1009.2
20260506124343 73 270 8.0 14.0 0.00 0.00 0.00 22 1009.2
20260506124141 74 270 8.0 14.0 0.00 0.00 0.00 22 1009.1
20260506123941 74 270 14.0 14.0 0.00 0.00 0.00 23 1009.1
20260506123838 74 270 6.0 7.0 0.00 0.00 0.00 24 1009.2
20260506123231 73 270 6.0 9.0 0.00 0.00 0.00 23 1009.2
20260506122622 73 270 5.0 13.0 0.00 0.00 0.00 23 1009.3
20260506121653 73 270 7.0 8.0 0.00 0.00 0.00 23 1009.2
20260506121451 73 270 5.0 8.0 0.00 0.00 0.00 24 1009.3
20260506120642 74 270 4.0 11.0 0.00 0.00 0.00 22 1009.3
20260506120234 74 270 5.0 10.0 0.00 0.00 0.00 21 1009.2
20260506115832 75 270 10.0 11.0 0.00 0.00 0.00 22 1009.1
20260506115224 76 270 8.0 13.0 0.00 0.00 0.00 22 1009.1
20260506114859 76 292 2.0 7.0 0.00 0.00 0.00 22 1009.2
20260506114659 76 270 6.0 7.0 0.00 0.00 0.00 21 1009.3
20260506114455 77 270 4.0 8.0 0.00 0.00 0.00 22 1009.4
20260506113852 77 270 2.0 7.0 0.00 0.00 0.00 23 1009.3
20260506112635 76 270 6.0 6.0 0.00 0.00 0.00 25 1009.4
20260506111218 75 270 3.0 6.0 0.00 0.00 0.00 26 1009.6
20260506110610 74 270 2.0 13.0 0.00 0.00 0.00 25 1009.7
20260506110236 74 270 9.0 9.0 0.00 0.00 0.00 26 1009.6
20260506104011 73 270 10.0 10.0 0.00 0.00 0.00 27 1009.8
20260506103810 73 270 7.0 8.0 0.00 0.00 0.00 27 1009.8
20260506103404 73 270 3.0 5.0 0.00 0.00 0.00 27 1009.8
20260506102959 74 270 2.0 7.0 0.00 0.00 0.00 27 1009.9
20260506101543 74 270 3.0 9.0 0.00 0.00 0.00 26 1009.9
20260506100325 74 270 4.0 5.0 0.00 0.00 0.00 28 1009.8
20260506100123 74 270 3.0 5.0 0.00 0.00 0.00 28 1009.9
20260506095721 74 270 3.0 7.0 0.00 0.00 0.00 31 1009.9
20260506094303 72 270 4.0 7.0 0.00 0.00 0.00 31 1009.9
20260506092439 70 315 5.0 7.0 0.00 0.00 0.00 33 1009.9
20260506091504 70 270 5.0 8.0 0.00 0.00 0.00 33 1009.9
20260506091430 70 270 5.0 8.0 0.00 0.00 0.00 33 1009.9
20260506090619 70 270 2.0 12.0 0.00 0.00 0.00 33 1009.9
20260506090012 70 270 5.0 13.0 0.00 0.00 0.00 33 1009.8
20260506085810 70 270 9.0 13.0 0.00 0.00 0.00 33 1009.7
20260506085405 70 270 9.0 9.0 0.00 0.00 0.00 36 1009.7
20260506084354 69 315 9.0 9.0 0.00 0.00 0.00 35 1009.6
20260506083335 67 270 3.0 8.0 0.00 0.00 0.00 39 1009.7
20260506083134 67 270 5.0 8.0 0.00 0.00 0.00 39 1009.6
20260506082317 66 270 3.0 8.0 0.00 0.00 0.00 40 1009.7
20260506081115 65 270 3.0 7.0 0.00 0.00 0.00 42 1009.6
20260506080510 64 270 3.0 4.0 0.00 0.00 0.00 42 1009.7
20260506073350 59 292 127.0 127.0 0.00 0.00 0.00 48 1009.9
20260506073314 59 292 127.0 127.0 0.00 0.00 0.00 48 1009.9
20260506072842 58 270 6.0 7.0 0.00 0.00 0.00 51 1009.7
20260506072640 58 292 4.0 4.0 0.00 0.00 0.00 52 1010.0
20260506072438 57 315 4.0 125.0 0.00 0.00 0.00 51 1009.9
20260506072241 57 292 2.0 125.0 0.00 0.00 0.00 52 1009.9
20260506072133 57 270 125.0 125.0 0.00 0.00 0.00 51 1009.9
20260506071648 56 292 4.0 5.0 0.00 0.00 0.00 50 1009.9
20260506071453 56 292 3.0 5.0 0.00 0.00 0.00 49 1009.9
20260506071246 56 315 4.0 5.0 0.00 0.00 0.00 50 1009.9
20260506071047 56 270 1.0 5.0 0.00 0.00 0.00 50 1009.9
20260506070841 56 315 3.0 4.0 0.00 0.00 0.00 51 1009.6
20260506070636 55 337 1.0 2.0 0.00 0.00 0.00 51 1009.7
20260506070435 55 337 0.0 4.0 0.00 0.00 0.00 51 1009.8
20260506062145 53 225 3.0 6.0 0.00 0.00 0.00 52 1009.8
20260506061741 53 225 0.0 5.0 0.00 0.00 0.00 53 1009.8
20260506060932 53 337 3.0 5.0 0.00 0.00 0.00 53 1009.7
20260506060528 53 315 4.0 7.0 0.00 0.00 0.00 53 1009.7
20260506060328 53 270 2.0 7.0 0.00 0.00 0.00 53 1009.9
20260506051234 52 315 4.0 7.0 0.00 0.00 0.00 54 1009.4
20260506051026 52 326 5.0 7.0 0.00 0.00 0.00 55 1009.2
20260506050625 52 315 1.0 4.0 0.00 0.00 0.00 55 1009.3
20260506050218 52 292 3.0 6.0 0.00 0.00 0.00 56 1009.5
20260506044801 53 292 7.0 7.0 0.00 0.00 0.00 54 1009.5
20260506043747 53 292 3.0 6.0 0.00 0.00 0.00 55 1009.1
20260506043345 53 292 1.0 5.0 0.00 0.00 0.00 55 1009.4
20260506042938 53 292 3.0 8.0 0.00 0.00 0.00 55 1009.5
20260506042206 53 348 1.0 6.0 0.00 0.00 0.00 55 1009.3
20260506041930 53 348 3.0 4.0 0.00 0.00 0.00 56 1009.3
20260506041320 53 281 3.0 6.0 0.00 0.00 0.00 53 1009.2
20260506040713 53 292 1.0 5.0 0.00 0.00 0.00 55 1009.2
20260506040511 53 337 1.0 4.0 0.00 0.00 0.00 55 1009.0
20260506040107 53 281 1.0 3.0 0.00 0.00 0.00 55 1008.8
20260506035459 53 270 2.0 5.0 0.00 0.00 0.00 55 1009.1
20260506035257 53 303 2.0 5.0 0.00 0.00 0.00 55 1009.2
20260506034047 53 315 4.0 6.0 0.00 0.00 0.00 55 1009.2
20260506033748 53 292 3.0 6.0 0.00 0.00 0.00 56 1008.9
20260506033645 53 292 3.0 6.0 0.00 0.00 0.00 56 1008.9
20260506032627 53 292 1.0 6.0 0.00 0.00 0.00 55 1009.4
20260506032022 53 337 1.0 6.0 0.00 0.00 0.00 55 1009.3
20260506031819 53 0 1.0 6.0 0.00 0.00 0.00 55 1009.3
20260506031011 53 326 2.0 6.0 0.00 0.00 0.00 56 1009.1
20260506030205 53 315 3.0 5.0 0.00 0.00 0.00 56 1009.1
20260506025757 53 303 1.0 4.0 0.00 0.00 0.00 53 1008.7
20260506025150 53 270 0.0 4.0 0.00 0.00 0.00 55 1009.3
20260506024139 53 337 1.0 6.0 0.00 0.00 0.00 55 1009.1
20260506023734 53 303 4.0 4.0 0.00 0.00 0.00 56 1009.0
20260506023329 53 303 2.0 4.0 0.00 0.00 0.00 56 1009.0
20260506022115 53 292 1.0 4.0 0.00 0.00 0.00 56 1008.8
20260506021710 53 348 0.0 5.0 0.00 0.00 0.00 56 1009.2
20260506021508 53 315 3.0 5.0 0.00 0.00 0.00 56 1009.5
20260506020905 53 337 2.0 3.0 0.00 0.00 0.00 57 1008.7
20260506020457 53 348 0.0 2.0 0.00 0.00 0.00 57 1009.1
20260506020255 53 337 1.0 1.0 0.00 0.00 0.00 57 1009.2
20260506014511 53 225 1.0 4.0 0.00 0.00 0.00 56 1009.2
20260506014434 53 225 1.0 4.0 0.00 0.00 0.00 56 1009.2
20260506013831 53 270 3.0 3.0 0.00 0.00 0.00 56 1009.1
20260506013716 53 292 3.0 3.0 0.00 0.00 0.00 56 1009.3
20260506013625 53 292 3.0 3.0 0.00 0.00 0.00 56 1009.3
20260506013519 53 292 1.0 2.0 0.00 0.00 0.00 57 1009.1
20260506013423 53 292 1.0 2.0 0.00 0.00 0.00 57 1009.1
20260506012613 53 326 0.0 2.0 0.00 0.00 0.00 57 1008.6
20260506011603 53 337 1.0 3.0 0.00 0.00 0.00 56 1009.2
20260506011001 53 337 2.0 3.0 0.00 0.00 0.00 57 1009.2
20260506010754 53 292 1.0 2.0 0.00 0.00 0.00 56 1009.5
20260506010551 53 337 1.0 3.0 0.00 0.00 0.00 56 1009.4
20260506005944 53 292 0.0 4.0 0.00 0.00 0.00 56 1009.4
20260506005337 53 326 2.0 3.0 0.00 0.00 0.00 56 1009.2
20260506005139 53 281 1.0 3.0 0.00 0.00 0.00 56 1009.6
20260506004933 53 348 3.0 5.0 0.00 0.00 0.00 56 1009.3
20260506004326 53 337 3.0 3.0 0.00 0.00 0.00 56 1009.3
20260506003922 53 337 3.0 3.0 0.00 0.00 0.00 54 1009.6
20260506003113 53 337 1.0 5.0 0.00 0.00 0.00 56 1009.4
20260506002708 53 292 5.0 6.0 0.00 0.00 0.00 54 1009.7
20260506002505 53 281 4.0 6.0 0.00 0.00 0.00 56 1009.7
20260506002120 53 315 3.0 5.0 0.00 0.00 0.00 52 1009.9
20260506001454 53 348 1.0 6.0 0.00 0.00 0.00 56 1009.5
20260506001259 53 292 3.0 6.0 0.00 0.00 0.00 55 1009.8
20260506001052 53 315 5.0 6.0 0.00 0.00 0.00 57 1009.6
20260506000646 53 337 4.0 4.0 0.00 0.00 0.00 57 1009.7
20260506000445 53 281 4.0 5.0 0.00 0.00 0.00 57 1009.7
20260506000318 53 337 3.0 5.0 0.00 0.00 0.00 55 1009.9
20260506000241 53 337 3.0 5.0 0.00 0.00 0.00 55 1009.9
20260505235836 53 315 4.0 4.0 0.00 0.00 0.00 56 1010.0
20260505235634 53 225 1.0 5.0 0.00 0.00 0.00 54 1009.8
20260505235431 53 337 2.0 5.0 0.00 0.00 0.00 56 1010.1
20260505235028 53 348 3.0 6.0 0.00 0.00 0.00 54 1010.0
20260505234825 53 337 4.0 6.0 0.00 0.00 0.00 56 1009.8
20260505234420 53 315 5.0 6.0 0.00 0.00 0.00 56 1009.9
20260505234017 53 292 2.0 6.0 0.00 0.00 0.00 56 1010.2
20260505233814 53 315 3.0 6.0 0.00 0.00 0.00 57 1009.6
20260505233611 53 292 6.0 6.0 0.00 0.00 0.00 57 1010.1
20260505233207 53 315 2.0 5.0 0.00 0.00 0.00 57 1009.9
20260505232802 53 292 3.0 5.0 0.00 0.00 0.00 57 1010.3
20260505232628 53 292 4.0 7.0 0.00 0.00 0.00 56 1010.1
20260505232358 53 292 4.0 7.0 0.00 0.00 0.00 53 1010.1
20260505232155 53 292 7.0 8.0 0.00 0.00 0.00 56 1009.9
20260505231955 53 292 4.0 8.0 0.00 0.00 0.00 56 1010.0
20260505231839 54 292 4.0 6.0 0.00 0.00 0.00 56 1010.2
20260505231755 54 292 4.0 6.0 0.00 0.00 0.00 56 1010.2
20260505231533 54 292 3.0 7.0 0.00 0.00 0.00 57 1010.3
20260505230931 54 292 5.0 7.0 0.00 0.00 0.00 56 1009.6
20260505230725 54 326 3.0 6.0 0.00 0.00 0.00 57 1010.3
20260505230524 54 292 4.0 6.0 0.00 0.00 0.00 57 1010.2
20260505230320 54 281 3.0 6.0 0.00 0.00 0.00 56 1009.8
20260505230118 54 337 5.0 5.0 0.00 0.00 0.00 58 1010.2
20260505225915 54 315 3.0 6.0 0.00 0.00 0.00 56 1010.1
20260505225714 54 315 4.0 6.0 0.00 0.00 0.00 55 1010.2
20260505225308 54 292 1.0 5.0 0.00 0.00 0.00 57 1009.9
20260505224701 54 315 1.0 3.0 0.00 0.00 0.00 53 1010.2
20260505224503 54 0 1.0 5.0 0.00 0.00 0.00 57 1010.5
20260505224257 54 281 1.0 5.0 0.00 0.00 0.00 58 1010.2
20260505223738 54 337 1.0 3.0 0.00 0.00 0.00 57 1010.0
20260505223654 54 337 1.0 3.0 0.00 0.00 0.00 57 1010.0
20260505223451 54 315 2.0 4.0 0.00 0.00 0.00 58 1010.1
20260505223046 54 337 2.0 3.0 0.00 0.00 0.00 57 1010.3
20260505221631 54 270 2.0 4.0 0.00 0.00 0.00 57 1010.3
20260505221426 54 270 1.0 4.0 0.00 0.00 0.00 56 1010.3
20260505221023 54 281 1.0 3.0 0.00 0.00 0.00 56 1010.2
20260505220820 54 337 0.0 4.0 0.00 0.00 0.00 56 1010.3
20260505220618 54 292 2.0 4.0 0.00 0.00 0.00 59 1010.3
20260505220414 54 292 2.0 3.0 0.00 0.00 0.00 56 1010.0
20260505220215 54 337 0.0 2.0 0.00 0.00 0.00 58 1010.5
20260505220011 54 0 0.0 2.0 0.00 0.00 0.00 57 1010.5